全部
Three Rivers Hospital Airport (Waverly, TN) TN72 天气
There is no TAF data available at TN72 or any nearby airports.
There is no METAR data available at TN72. Showing METAR data for M02 (21 mi E).
M02近期METAR历史数据(TN72无数据)
| Date | Time (CDT) | Flight Rules | Wind Dir. | Speed | Type | Height AGL (ft) | Visibility | Temp (°C) | Temp (°F) | Dew Point (°C) | Dew Point (°F) | Rel. Humid. | Pressure | Density Altitude | Remarks |
|---|---|---|---|---|---|---|---|---|---|---|---|---|---|---|---|
| 05-五月 | 05:55 | VFR | 190° | 8 kt | 10 miles | 14° | 57° | 9° | 48° | 72% | 29.84 in Hg | 852 ft | |||
| 05-五月 | 05:35 | VFR | 200° | 6 kt | 10 miles | 14° | 57° | 9° | 48° | 72% | 29.84 in Hg | 852 ft | |||
| 05-五月 | 05:15 | VFR | 200° | 6 kt | 10 miles | 15° | 59° | 9° | 48° | 67% | 29.84 in Hg | 972 ft | |||
| 05-五月 | 04:55 | VFR | 190° | 7 kt | 10 miles | 15° | 59° | 9° | 48° | 67% | 29.83 in Hg | 982 ft | |||
| 05-五月 | 04:35 | VFR | 190° | 6 kt | 10 miles | 14° | 57° | 9° | 48° | 72% | 29.83 in Hg | 862 ft | |||
| 05-五月 | 04:15 | VFR | 190° | 6 kt | 10 miles | 15° | 59° | 9° | 48° | 67% | 29.83 in Hg | 982 ft | |||
| 05-五月 | 03:55 | VFR | 190° | 6 kt | 10 miles | 14° | 57° | 9° | 48° | 72% | 29.83 in Hg | 862 ft | |||
| 05-五月 | 03:15 | VFR | 200° | 8 kt | 10 miles | 15° | 59° | 9° | 48° | 67% | 29.82 in Hg | 992 ft | |||
| 05-五月 | 02:55 | VFR | 200° | 9 kt | 10 miles | 15° | 59° | 9° | 48° | 67% | 29.82 in Hg | 992 ft | |||
| 05-五月 | 02:15 | VFR | 200° | 9 kt | 10 miles | 15° | 59° | 9° | 48° | 67% | 29.83 in Hg | 982 ft | |||
| 05-五月 | 01:55 | VFR | 200° | 8 kt | 10 miles | 16° | 60° | 9° | 48° | 63% | 29.83 in Hg | 1,102 ft | |||
| 05-五月 | 01:35 | VFR | 200° | 9 kt | 10 miles | 16° | 60° | 9° | 48° | 63% | 29.84 in Hg | 1,092 ft | |||
| 05-五月 | 01:15 | VFR | 200° | 9 kt | 10 miles | 16° | 60° | 9° | 48° | 63% | 29.85 in Hg | 1,082 ft | |||
| 05-五月 | 00:55 | VFR | 200° | 8 kt | 10 miles | 16° | 60° | 9° | 48° | 63% | 29.85 in Hg | 1,082 ft | |||
| 05-五月 | 00:15 | VFR | 200° | 8 kt | 10 miles | 17° | 62° | 9° | 48° | 59% | 29.86 in Hg | 1,192 ft | |||
| 04-五月 | 23:55 | VFR | 200° | 8 kt | 10 miles | 17° | 62° | 9° | 48° | 59% | 29.85 in Hg | 1,202 ft | |||
| 04-五月 | 23:35 | VFR | 210° | 7 kt | 10 miles | 17° | 62° | 9° | 48° | 59% | 29.85 in Hg | 1,202 ft | |||
| 04-五月 | 23:15 | VFR | 200° | 8 kt | 10 miles | 18° | 64° | 9° | 48° | 56% | 29.84 in Hg | 1,332 ft | |||
| 04-五月 | 22:55 | VFR | 210° | 8 kt | 10 miles | 18° | 64° | 9° | 48° | 56% | 29.85 in Hg | 1,322 ft | |||
| 04-五月 | 22:15 | VFR | 210° | 9 kt | 10 miles | 19° | 66° | 8° | 46° | 49% | 29.84 in Hg | 1,452 ft | |||
| 04-五月 | 21:55 | VFR | 210° | 10 kt | 10 miles | 19° | 66° | 8° | 46° | 49% | 29.83 in Hg | 1,462 ft | |||
| 04-五月 | 21:35 | VFR | 200° | 10 kt | 10 miles | 19° | 66° | 8° | 46° | 49% | 29.83 in Hg | 1,462 ft | |||
| 04-五月 | 21:15 | VFR | 200° | 9 kt | 10 miles | 20° | 68° | 8° | 46° | 46% | 29.83 in Hg | 1,582 ft | |||
| 04-五月 | 20:55 | VFR | 200° | 9 kt | 10 miles | 20° | 68° | 8° | 46° | 46% | 29.82 in Hg | 1,592 ft |
登录
| 您的浏览器不支持. 升级您的浏览器 |
